Regional Weather Roundup
Issued by NWS Midland/Odessa, TX

Skip options and go directly to product.
Home | Oldest Version | Previous Version | Current Version | All | Text Only | Save Text | Print | Product List | Glossary Off

Skip product version selection by date and time.   

932
ASUS44 KMAF 070901
RWRMAF
MIDLAND AREA WEATHER ROUNDUP
NATIONAL WEATHER SERVICE MIDLAND TX
400 AM CDT TUE JUL 07 2015

...IN SOUTHWEST TEXAS AND SOUTHEAST NEW MEXICO...

CITY           SKY/WX    TMP DP  RH WIND       PRES   REMARKS
ALPINE         PTCLDY    67  63  86 CALM      30.15F
ANDREWS        MOCLDY    71  71  99 N6        30.02S
ARTESIA        CLOUDY    68  68 100 N16G22    30.08R
BIG SPRING     CLOUDY    74  71  90 W9        30.04R THUNDER
CARLSBAD       CLOUDY    72  67  84 NW15      30.03F
DRYDEN           N/A     79  68  69 S8        29.93S
FORT STOCKTON  LGT RAIN  72  67  84 SW12      29.98S
GUAD PASS      CLOUDY    64  64 100 E28       30.13F
HOBBS          CLOUDY    68  68 100 N18       30.03F
MARFA          PTCLDY   N/A N/A N/A E7        30.12F
MIDLAND AIRPK  LGT RAIN  76  69  79 NE5       30.01R
MIDLAND INTL   CLOUDY    78  67  68 CALM      29.99R
ODESSA         LGT RAIN  74  68  81 CALM      30.01R
PECOS          MOCLDY    74  65  73 NW10      29.97R
PRESIDIO       PTSUNNY   78  65  65 E5        29.97F
SEMINOLE       CLOUDY    71  69  95 E5        30.05R
SNYDER         HVY RAIN  70  69  97 NW17      30.04R
WINK           PTCLDY    73  68  84 N6        29.97R
$$
...OTHER STATIONS IN TEXAS...

CITY           SKY/WX    TMP DP  RH WIND       PRES   REMARKS
ABILENE        TSTM      72  71  97 N7        29.97S FOG
AMARILLO       LGT RAIN  65  62  90 NE16G23   30.09F
AUSTIN         CLOUDY    78  76  93 S14       29.97F
BROWNSVILLE    PTCLDY    79  77  94 S8        29.98F
CORPUS CHRISTI PTCLDY    81  78  91 S12       29.98S
DALLAS FTW     CLOUDY    81  72  74 S20       29.93S
DEL RIO        MOCLDY    80  71  74 SE13G20   29.90S
EL PASO        PTCLDY    77  61  57 E5        30.04R
HOUSTON INT    MOCLDY    80  77  90 S8        30.01F
LUBBOCK        RAIN      68  67  96 NE14      30.03F FOG
SAN ANGELO     MOCLDY    80  70  71 S12G21    29.94S
SAN ANTONIO    CLOUDY    79  73  82 S15       29.98F
WACO           CLOUDY    79  73  82 S16       29.98R
WICHITA FALLS  NOT AVBL
$$
...OTHER LOCATIONS IN NEW MEXICO...

CITY           SKY/WX    TMP DP  RH WIND       PRES   REMARKS
ALAMAGORDO     MOCLDY    73  59  60 S7        30.05S
ALBUQUERQUE    TSTM      61  58  90 SE7       30.24F FOG
CANNON AFB     CLOUDY    64  62  92 NE16G23   30.13F
CLOVIS         CLOUDY    63  61  94 NE16        N/A
HOLLOMAN AFB   NOT AVBL
ROSWELL        CLOUDY    68  65  90 N14       30.09F
RUIDOSO        LGT RAIN  57  57 100 E8        30.30F
SANTA FE       LGT RAIN  60  57  89 W3        30.26F
TRUTH OR CONSE CLEAR     68  60  75 N20G25    30.12S
TUCUMCARI      CLOUDY    66  61  84 NE13      30.15F
$$

USA.gov is the U.S. government's official web portal to all federal, state and local government web resources and services.